Simultaneous Nadir Overpasses (SNOs) Predictions

Prediction of SNOs between FY3D and AQUA Satellite Orbit:

Table of predicted SNOs for the next 14.0 days since TLE Epoch: 5/29/2021
Index Date (FY3D) Time (FY3D) Lat,Lon (FY3D) SZA (FY3D ) Date (AQUA) Time (AQUA) Lat,Lon (AQUA) SZA (AQUA ) Distance(km) Time Diff (sec)
1 05/30/2021 08:34:03 -46.08,-113.38 152.72 05/30/2021 08:34:40 -46.09,-113.39 152.65 1.96 37
2 05/30/2021 09:25:32 48.44, 52.95 29.02 05/30/2021 09:24:50 48.52, 53.31 29.14 27.85 42
3 06/02/2021 00:51:00 -48.25, 1.67 151.50 06/02/2021 00:51:46 -48.25, 1.66 151.43 0.43 46
4 06/02/2021 01:41:41 47.86, 169.13 28.21 06/02/2021 01:41:09 47.90, 169.43 28.30 22.63 32
5 06/04/2021 17:08:01 -50.65, 116.54 149.99 06/04/2021 17:08:56 -50.65, 116.54 149.92 0.02 55
6 06/04/2021 17:57:49 47.22, -74.66 27.41 06/04/2021 17:57:28 47.29, -74.45 27.51 17.51 21
7 06/07/2021 09:24:58 -52.81,-128.56 148.55 06/07/2021 09:26:02 -52.81,-128.55 148.48 0.30 64
8 06/07/2021 10:13:59 46.69, 41.49 26.74 06/07/2021 10:13:48 46.74, 41.64 26.81 12.11 11
9 06/10/2021 01:41:49 -54.68, -13.60 147.24 06/10/2021 01:43:02 -54.68, -13.59 147.18 0.46 73



Historial Predications of SNOs between FY3D and AQUA
